Powrót do katalogu

SL-8 R/B

AktywnyLEO
NORAD 14760·ROCKET BODY·🇷🇺 Russia

Wystrzelony Feb 21, 1984 z Plesetsk Cosmodrome

Loading…

Następne Przeloty (najbliższe 24 godziny)

TLE

ŚwieżeSource: Space-Track

Epoka: Sep 14, 2026, 10:01 UTC

1 14760U 84019B   26257.41777045  .00000066  00000-0  30972-4 0  9994
2 14760  74.0429  44.2991 0027058 156.3868 203.8535 14.37240684228089

Śledź SL-8 R/B w czasie rzeczywistym z AllMySat

Download on the App Store